Location: Hylvaty SDH
(49.9612°N, 16.4057°E)
Time: 18:52:16
(UTC+02:00)

Transit 4A - Pass Details

Date: 16 August 2020
Orbit: 862 x 982 km, 66.8° (Epoch: 28 September)

Event Time Altitude Azimuth Distance (km) Brightness Sun altitude
Rises 08:22:45 0° 191° (S) 3,487 10.9 23.8°
Reaches altitude 10° 08:25:18 10° 185° (S) 2,567 10.3 24.2°
Maximum altitude 08:30:54 44° 115° (ESE) 1,257 10.2 25.1°
Drops below altitude 10° 08:36:42 10° 46° (NE) 2,662 10.9 26.0°
Sets 08:39:23 0° 40° (NE) 3,629 11.4 26.5°
